Regional Weather Roundup
Issued by NWS

Home | Current Version | Previous Version | Text Only | Print | Product List | Glossary On
Versions: 1 2 3 4 5 6 7 8 9 10 11 12 13 14 15 16 17 18 19 20 21 22 23 24 25 26
000
ASUS45 KBOI 131510
RWRID

IDAHO REGIONAL WEATHER ROUNDUP
NATIONAL WEATHER SERVICE BOISE ID
800 AM MST WED DEC 13 2017

NOTE: "FAIR" INDICATES FEW OR NO CLOUDS BELOW 12000 FEET
WITH NO SIGNIFICANT WEATHER AND/OR OBSTRUCTIONS TO VISIBILITY

IDZ012-014-131600-
SOUTHWEST IDAHO


CITY           SKY/WX    TMP DP  RH WIND       PRES   REMARKS
BOISE          CLOUDY    23  20  88 SE3       30.44F FOG
CALDWELL       NOT AVBL
MOUNTAIN HOME  FOG       21  21 100 CALM      30.46S VSB 1/2
$$

IDZ016-017-131600-
SOUTHCENTRAL IDAHO


CITY           SKY/WX    TMP DP  RH WIND       PRES   REMARKS
BURLEY         CLOUDY    22  17  81 CALM      30.34F HAZE
JEROME         HAZE      24  18  77 SE3       30.37F VSB 3/4
TWIN FALLS     FOG       20  18  92 CALM      30.37S VSB 1/2
$$

IDZ019>023-131600-
SOUTHEAST IDAHO


CITY           SKY/WX    TMP DP  RH WIND       PRES   REMARKS
IDAHO FALLS    CLOUDY    19  18  95 SW3       30.32F FOG
POCATELLO      FOG       19  16  88 S5        30.34F VSB 1/2 WCI  12
REXBURG        CLOUDY    25  20  81 CALM      30.30F
$$

IDZ006-010-011-018-031-032-131600-
CENTRAL IDAHO MOUNTAINS


CITY           SKY/WX    TMP DP  RH WIND       PRES   REMARKS
MCCALL         LGT SNOW  24  22  91 CALM      30.32F FOG
HAILEY         MOCLDY    21  19  93 CALM      30.31F
STANLEY          N/A     18  14  84 CALM      30.31F
SALMON         CLOUDY    19  15  84 CALM      30.41R
CHALLIS        CLOUDY    22  16  78 CALM      30.30F
$$

IDZ002-004-006-007-026-131600-
NORTHERN IDAHO


CITY           SKY/WX    TMP DP  RH WIND       PRES   REMARKS
LEWISTON       CLOUDY    28  26  92 CALM      30.49R
LOWELL           N/A     30  29  96 CALM      30.50S
COEUR D`ALENE  FLURRIES  27  25  92 CALM      30.43R
MULLAN PASS    CLOUDY    25  24  96 SW3       30.23F
$$




USA.gov is the U.S. government's official web portal to all federal, state and local government web resources and services.